Starlink 30103

operational
NORAD ID: 56290 Int'l Des: 2023-056 Owner: SPXS Country: US Constellation: starlink
LEOCIRCULAR

About Starlink 30103

Description loading...

Live Position

Loading 3D Globe...

Upcoming Passes

Altitude History

Altitude vs Time

uPlot chart will show altitude changes over time

Two-Line Element Set

1 56290U 23056E 25258.22956259 .00000739 00000-0 69808-4 0 9994
2 56290 43.0031 83.3878 0001281 261.6818 98.3879 15.02536680133632
Epoch: Sep 15, 2025 • Age: 19 hours

Current Status

Altitude 571.5 km
Velocity 7.58 km/s
Sub-Earth Point -43.12°S, 12.89°W
Launch Date Apr 19, 2023
Age 2.4 years
Type internet

Technical Details

Classification Payload
Mass 730.00 kg
Dry Mass 700.00 kg
Total Mass 730.00 kg
Length 0.30 m
Diameter 4.10 m
Span 29.00 m
Shape Box + pan
Manufacturer SPXS
Bus Type Starlink V2M
Phase Status In Orbit
Owner/State SPXS/US

Large Constellations

Loading constellations...